TimeCST,TemperatureF,Dew PointF,Humidity,Sea Level PressureIn,VisibilityMPH,Wind Direction,Wind SpeedMPH,Gust SpeedMPH,PrecipitationIn,Events,Conditions,WindDirDegrees,DateUTC
12:15 AM,-2.2,-7.6,78,30.07,4.0,NNW,20.7,-,N/A,,Overcast,340,2013-02-19 06:15:00
12:35 AM,-2.2,-7.6,78,30.08,4.0,NNW,23.0,-,N/A,,Overcast,330,2013-02-19 06:35:00
1:15 AM,-2.2,-9.4,71,30.10,7.0,NNW,19.6,-,N/A,,Overcast,330,2013-02-19 07:15:00
1:35 AM,-5.8,-11.2,77,30.11,6.0,NNW,21.9,-,N/A,,Scattered Clouds,330,2013-02-19 07:35:00
1:55 AM,-5.8,-11.2,77,30.11,6.0,NNW,19.6,-,N/A,,Clear,330,2013-02-19 07:55:00
2:15 AM,-7.6,-11.2,84,30.12,10.0,NNW,18.4,-,N/A,,Clear,330,2013-02-19 08:15:00
2:35 AM,-7.6,-11.2,84,30.12,10.0,NNW,17.3,-,N/A,,Scattered Clouds,330,2013-02-19 08:35:00
2:55 AM,-5.8,-11.2,77,30.12,5.0,NNW,23.0,-,N/A,,Overcast,330,2013-02-19 08:55:00
3:15 AM,-5.8,-11.2,77,30.13,5.0,NNW,19.6,25.3,N/A,,Overcast,330,2013-02-19 09:15:00
3:35 AM,-7.6,-11.2,84,30.14,5.0,NNW,20.7,24.2,N/A,,Overcast,330,2013-02-19 09:35:00
3:55 AM,-7.6,-11.2,84,30.15,7.0,NNW,21.9,25.3,N/A,,Overcast,330,2013-02-19 09:55:00
4:15 AM,-7.6,-14.8,71,30.16,5.0,NNW,20.7,25.3,N/A,,Overcast,330,2013-02-19 10:15:00
4:35 AM,-7.6,-13.0,77,30.16,5.0,NNW,20.7,26.5,N/A,,Overcast,330,2013-02-19 10:35:00
4:55 AM,-9.4,-16.6,71,30.16,8.0,NNW,18.4,-,N/A,,Overcast,330,2013-02-19 10:55:00
5:15 AM,-9.4,-14.8,77,30.17,10.0,NNW,18.4,-,N/A,,Scattered Clouds,330,2013-02-19 11:15:00
5:55 AM,-11.2,-16.6,77,30.19,10.0,NNW,17.3,-,N/A,,Clear,330,2013-02-19 11:55:00
6:35 AM,-13.0,-18.4,77,30.21,10.0,NNW,17.3,-,N/A,,Clear,330,2013-02-19 12:35:00
6:55 AM,-13.0,-25.6,53,30.22,10.0,NNW,16.1,-,N/A,,Clear,330,2013-02-19 12:55:00
7:15 AM,-13.0,-9999,N/A,30.22,10.0,NNW,15.0,-,N/A,,Clear,330,2013-02-19 13:15:00
7:35 AM,-14.8,-9999,N/A,30.23,10.0,NNW,15.0,-,N/A,,Clear,340,2013-02-19 13:35:00
7:55 AM,-14.8,-9999,N/A,30.24,10.0,NNW,16.1,-,N/A,,Clear,340,2013-02-19 13:55:00
8:15 AM,-14.8,-23.8,64,30.26,10.0,NNW,16.1,-,N/A,,Clear,330,2013-02-19 14:15:00
8:35 AM,-14.8,-25.6,58,30.26,10.0,NNW,17.3,-,N/A,,Clear,330,2013-02-19 14:35:00
8:55 AM,-13.0,-23.8,59,30.28,10.0,NNW,16.1,-,N/A,,Clear,330,2013-02-19 14:55:00
9:35 AM,-11.2,-23.8,54,30.29,10.0,NNW,16.1,-,N/A,,Clear,330,2013-02-19 15:35:00
9:55 AM,-11.2,-18.4,70,30.30,10.0,NNW,16.1,-,N/A,,Clear,340,2013-02-19 15:55:00
10:15 AM,-11.2,-22.0,59,30.31,10.0,NNW,17.3,-,N/A,,Clear,330,2013-02-19 16:15:00
10:35 AM,-9.4,-18.4,65,30.31,10.0,NNW,18.4,-,N/A,,Clear,330,2013-02-19 16:35:00
10:55 AM,-9.4,-22.0,54,30.32,10.0,NNW,18.4,-,N/A,,Clear,330,2013-02-19 16:55:00
11:15 AM,-9.4,-16.6,71,30.33,10.0,NNW,18.4,-,N/A,,Clear,330,2013-02-19 17:15:00
11:35 AM,-9.4,-23.8,49,30.34,10.0,NNW,16.1,-,N/A,,Clear,330,2013-02-19 17:35:00
12:15 PM,-7.6,-27.4,38,30.34,10.0,NNW,13.8,-,N/A,,Clear,330,2013-02-19 18:15:00
12:35 PM,-5.8,-18.4,55,30.33,10.0,NNW,16.1,-,N/A,,Clear,330,2013-02-19 18:35:00
12:55 PM,-5.8,-16.6,60,30.34,10.0,NNW,15.0,-,N/A,,Clear,330,2013-02-19 18:55:00
1:15 PM,-5.8,-25.6,38,30.34,10.0,NNW,17.3,-,N/A,,Clear,330,2013-02-19 19:15:00
1:35 PM,-4.0,-14.8,60,30.34,10.0,NNW,13.8,-,N/A,,Clear,330,2013-02-19 19:35:00
1:55 PM,-4.0,-9999,N/A,30.34,10.0,NNW,16.1,-,N/A,,Clear,330,2013-02-19 19:55:00
2:15 PM,-2.2,-9999,N/A,30.34,10.0,NNW,16.1,-,N/A,,Clear,330,2013-02-19 20:15:00
2:35 PM,-2.2,-29.2,27,30.34,10.0,NNW,15.0,-,N/A,,Clear,330,2013-02-19 20:35:00
2:55 PM,-2.2,-18.4,46,30.35,10.0,NNW,15.0,-,N/A,,Clear,330,2013-02-19 20:55:00
3:15 PM,-2.2,-13.0,60,30.35,10.0,NNW,15.0,-,N/A,,Clear,330,2013-02-19 21:15:00
3:35 PM,-2.2,-18.4,46,30.36,10.0,NW,13.8,-,N/A,,Clear,310,2013-02-19 21:35:00
3:55 PM,-4.0,-14.8,60,30.37,10.0,NW,13.8,-,N/A,,Clear,310,2013-02-19 21:55:00
4:15 PM,-5.8,-18.4,55,30.37,10.0,NW,12.7,-,N/A,,Clear,310,2013-02-19 22:15:00
4:35 PM,-5.8,-11.2,77,30.38,10.0,NW,11.5,-,N/A,,Clear,310,2013-02-19 22:35:00
4:55 PM,-5.8,-25.6,38,30.39,10.0,WNW,9.2,-,N/A,,Clear,300,2013-02-19 22:55:00
5:15 PM,-5.8,-7.6,92,30.39,10.0,WNW,9.2,-,N/A,,Clear,300,2013-02-19 23:15:00
6:35 PM,-11.2,-14.8,84,30.41,10.0,NW,8.1,-,N/A,,Clear,320,2013-02-20 00:35:00
6:55 PM,-11.2,-25.6,49,30.41,10.0,NNW,6.9,-,N/A,,Clear,330,2013-02-20 00:55:00
7:15 PM,-11.2,-16.6,77,30.41,10.0,NNW,5.8,-,N/A,,Clear,330,2013-02-20 01:15:00
7:35 PM,-13.0,-29.2,44,30.42,10.0,NW,8.1,-,N/A,,Clear,310,2013-02-20 01:35:00
7:55 PM,-13.0,-9999,N/A,30.43,10.0,NW,6.9,-,N/A,,Clear,320,2013-02-20 01:55:00
8:15 PM,-14.8,-9999,N/A,30.43,10.0,NW,8.1,-,N/A,,Clear,320,2013-02-20 02:15:00
8:35 PM,-13.0,-9999,N/A,30.43,10.0,NNW,8.1,-,N/A,,Clear,340,2013-02-20 02:35:00
8:55 PM,-13.0,-9999,N/A,30.43,10.0,NNW,6.9,-,N/A,,Clear,340,2013-02-20 02:55:00
9:15 PM,-11.2,-9999,N/A,30.43,10.0,North,8.1,-,N/A,,Clear,350,2013-02-20 03:15:00
9:35 PM,-11.2,-9999,N/A,30.43,10.0,North,6.9,-,N/A,,Clear,10,2013-02-20 03:35:00
9:55 PM,-11.2,-29.2,41,30.44,10.0,North,9.2,-,N/A,,Clear,10,2013-02-20 03:55:00
10:15 PM,-11.2,-25.6,49,30.43,10.0,North,10.4,-,N/A,,Clear,10,2013-02-20 04:15:00
10:35 PM,-11.2,-23.8,54,30.44,10.0,North,8.1,-,N/A,,Clear,10,2013-02-20 04:35:00
10:55 PM,-11.2,-23.8,54,30.44,10.0,North,6.9,-,N/A,,Clear,360,2013-02-20 04:55:00
11:15 PM,-14.8,-27.4,53,30.46,10.0,NW,8.1,-,N/A,,Clear,320,2013-02-20 05:15:00
11:35 PM,-16.6,-27.4,58,30.46,10.0,NW,8.1,-,N/A,,Clear,320,2013-02-20 05:35:00